[[{"header":{"parameterUnit":"m.s-1","parameterCategory":1,"la1":30.2991,"la2":30.254,"lo1":-89.0895,"lo2":-89.0444,"dy":0.0017,"dx":0.0017,"nx":28,"ny":28,"refTime":"2025-12-20T03:00:00:Z","depth":0,"parameterNumber":2,"parameterNumberName":"U-component_of_WINDS"},"data":[0,0,0,0,0,0,0,0,0,0,0,0,0,0,0,0,0,0,0,0,0,0,0,0,0,0,0,0,0,0,0,0,0,0,0,0,0,0,0,0,0,0,0,0,0,0,0,0,0,0,0,0,0,0,0,0,0,0,0.5969,0.597,0,0.6064,0.6065,0.6066,0.6057,0.6056,0.6054,0.6053,0.6147,0.6151,0.6155,0,0,0,0,0,0,0,0,0,0,0,0,0,0.5778,0.5782,0.5969,0.597,0.5971,0.6063,0.6065,0.6066,0.6057,0.6056,0.6054,0.6052,0.6146,0.6151,0.6155,0,0,0,0,0,0,0,0,0,0,0,0,0,0.5866,0.5783,0.5969,0.5978,0.598,0.6063,0.6065,0.6066,0.6058,0.6056,0.6053,0.6051,0.6144,0.615,0.6156,0.6235,0,0,0.6173,0.6176,0,0,0,0,0,0,0,0,0.5861,0.5873,0.5976,0.5978,0.598,0.6046,0.6032,0.6123,0.6058,0.6028,0.6053,0.605,0.6115,0.6123,0.6146,0.6239,0.6243,0.6174,0.6178,0.618,0.6182,0,0,0,0,0,0,0,0.5855,0.5869,0.6006,0.5977,0.598,0.5977,0.5987,0.6049,0.6083,0.6031,0.603,0.6042,0.6116,0.614,0.6148,0.6245,0.6174,0.6179,0.6183,0.6185,0.6409,0.6411,0,0,0,0,0,0,0.5847,0.5864,0.6003,0.6009,0.5914,0.5982,0.5993,0.6027,0.6082,0.6088,0.6043,0.6041,0.6131,0.6141,0.6151,0.6249,0.618,0.6185,0.6189,0.6406,0.6409,0.6412,0,0,0,0,0,0,0.5843,0.5859,0.5999,0.5936,0.5954,0.5988,0.6026,0.603,0.6054,0.6092,0.6097,0.6062,0.613,0.6143,0.6215,0.6252,0.6188,0.6193,0.6404,0.6407,0.6411,0.6444,0,0,0,0,0,0,0.5837,0.5858,0.5889,0.5937,0.5957,0.6062,0.6028,0.6034,0.6065,0.6062,0.6111,0.6117,0.6129,0.6206,0.622,0.6259,0.6198,0.64,0.6405,0.641,0.644,0.6448,0.6456,0,0,0,0,0,0.5831,0.5894,0.5891,0.5908,0.5997,0.6064,0.6076,0.609,0.6068,0.6099,0.6123,0.6115,0.6245,0.6213,0.6229,0.627,0.6398,0.6404,0.6409,0.6436,0.6447,0.6455,0,0,0,0,0,0,0.5848,0.59,0.5897,0.5978,0.6017,0.6063,0.6103,0.61,0.6146,0.6141,0.6156,0.6167,0.6239,0.6261,0.6225,0.635,0.6319,0.6328,0.6333,0.6344,0.6352,0.6345,0.6203,0,0,0,0,0,0.5861,0.5913,0.5955,0.6022,0.6042,0.6069,0.6099,0.6106,0.6147,0.6163,0.6192,0.6231,0.628,0.6313,0.636,0.6442,0.6453,0.6478,0.6486,0.6492,0.65,0.6546,0.6558,0.643,0.643,0.643,0,0,0.5889,0.5924,0.5955,0.6026,0.6057,0.611,0.6083,0.6139,0.6178,0.6171,0.6241,0.6264,0.6308,0.6385,0.6421,0.6406,0.6538,0.6499,0.6504,0.6509,0.6553,0.6565,0.6576,0.6434,0.6434,0.6433,0,0,0.5968,0.5998,0.6059,0.6091,0.6138,0.6156,0.617,0.6217,0.6232,0.6303,0.6299,0.6344,0.6429,0.6462,0.6489,0.658,0.6575,0.6594,0.6637,0.6681,0.6692,0.6701,0.6734,0.6746,0.6602,0.6602,0.6602,0,0.5996,0.6076,0.6089,0.6147,0.6179,0.6175,0.6236,0.6266,0.6326,0.6348,0.6331,0.6438,0.6467,0.6553,0.6575,0.6597,0.6614,0.659,0.6689,0.6698,0.6707,0.6739,0.6752,0.6604,0.6604,0.6604,0.6604,0,0.6109,0.6164,0.6207,0.6267,0.6303,0.6362,0.6384,0.6419,0.6423,0.6442,0.6514,0.6549,0.6605,0.6625,0.6629,0.6711,0.6701,0.6686,0.6655,0.6721,0.6752,0.6764,0.6608,0.6607,0.6606,0.6605,0,0,0.6202,0.627,0.6285,0.6313,0.6365,0.6408,0.6466,0.6521,0.6551,0.6592,0.6642,0.6714,0.6701,0.6732,0.6739,0.6778,0.685,0.6759,0.676,0.6776,0.6944,0.6956,0.697,0.6846,0.6848,0.685,0.6941,0,0.6287,0.6392,0.6406,0.6499,0.6551,0.6548,0.6599,0.6636,0.6656,0.6702,0.6722,0.6774,0.6752,0.6771,0.6809,0.6833,0.6884,0.6826,0.6893,0.6895,0.6884,0.6986,0.6999,0.7083,0.6953,0.6955,0.6956,0,0.64,0.6447,0.6545,0.6592,0.6614,0.666,0.6712,0.6755,0.6797,0.6809,0.6844,0.6846,0.6906,0.6871,0.6954,0.6915,0.6942,0.6958,0.6962,0.697,0.6931,0.6999,0.711,0.7124,0.6975,0.6973,0.6972,0,0.6461,0.6547,0.6618,0.6641,0.6696,0.6729,0.6753,0.6793,0.6826,0.687,0.6892,0.6942,0.6971,0.7009,0.7025,0.6998,0.7108,0.7074,0.7119,0.7119,0.7144,0.7143,0.7263,0.7159,0.7159,0.7158,0.7158,0,0.6555,0.6616,0.6646,0.6689,0.6757,0.6772,0.6839,0.6861,0.6897,0.6945,0.6944,0.6989,0.7006,0.7053,0.7066,0.7133,0.7145,0.7156,0.7159,0.7158,0.7156,0.7177,0.7172,0.7162,0.7161,0.716,0.716,0,0.6634,0.6657,0.6734,0.678,0.6793,0.6841,0.6881,0.6923,0.6941,0.7001,0.7016,0.7045,0.7101,0.712,0.7187,0.7195,0.7274,0.7271,0.7261,0.7262,0.7307,0.7303,0.7446,0.7467,0.7347,0.7348,0.7349,0,0.6694,0.6741,0.6793,0.6825,0.6851,0.6903,0.6937,0.6953,0.6988,0.704,0.7075,0.7131,0.7176,0.7265,0.7291,0.7342,0.7342,0.7388,0.7349,0.7346,0.7344,0.7342,0.7347,0.7396,0.7397,0.7398,0.7399,0,0.6798,0.6807,0.6856,0.691,0.695,0.6992,0.7033,0.706,0.7082,0.7121,0.7178,0.7213,0.7282,0.7337,0.739,0.7414,0.7411,0.7411,0.7425,0.7424,0.7417,0.7423,0.7283,0.7408,0.7407,0.7407,0.7406,0.7406,0.6871,0.6913,0.6956,0.7011,0.7044,0.7082,0.7125,0.7149,0.7198,0.7256,0.7262,0.7324,0.7365,0.7435,0.7462,0.751,0.7497,0.7516,0.7521,0.7526,0.753,0.7408,0.7519,0.7519,0.7519,0.7519,0.7518,0,0.6976,0.7004,0.7054,0.7113,0.7156,0.7149,0.7195,0.7231,0.7286,0.7325,0.737,0.7436,0.749,0.7521,0.7574,0.7607,0.7607,0.762,0.7619,0.7625,0.7538,0.7522,0.762,0.762,0.762,0.762,0.762,0.762,0.7036,0.7108,0.7122,0.7209,0.7237,0.7299,0.7325,0.7361,0.7392,0.7467,0.7512,0.7532,0.7568,0.7624,0.7672,0.768,0.77,0.7716,0.7722,0.7641,0.7631,0.7621,0.7606,0.772,0.772,0.7805,0.7806,0.7806]},{"header":{"parameterUnit":"m.s-1","parameterCategory":1,"la1":30.2991,"la2":30.254,"lo1":-89.0895,"lo2":-89.0444,"dy":0.0017,"dx":0.0017,"nx":28,"ny":28,"refTime":"2025-12-20T03:00:00:Z","depth":0,"parameterNumber":3,"parameterNumberName":"V-component_of_WINDS"},"data":[0,0,0,0,0,0,0,0,0,0,0,0,0,0,0,0,0,0,0,0,0,0,0,0,0,0,0,0,0,0,0,0,0,0,0,0,0,0,0,0,0,0,0,0,0,0,0,0,0,0,0,0,0,0,0,0,0,0,0.59,0.5903,0,0.6127,0.613,0.6132,0.6237,0.6236,0.6236,0.6236,0.6473,0.6479,0.6486,0,0,0,0,0,0,0,0,0,0,0,0,0,0.5561,0.5567,0.59,0.5903,0.5906,0.6127,0.613,0.6133,0.6237,0.6236,0.6236,0.6236,0.6471,0.6479,0.6486,0,0,0,0,0,0,0,0,0,0,0,0,0,0.574,0.5569,0.5899,0.5984,0.5994,0.6126,0.613,0.6134,0.6237,0.6236,0.6236,0.6236,0.6468,0.6478,0.6487,0.6554,0,0,0.6517,0.6522,0,0,0,0,0,0,0,0,0.573,0.5753,0.5969,0.5978,0.5989,0.6153,0.6098,0.6275,0.6237,0.6145,0.6236,0.6235,0.6367,0.6385,0.6429,0.6566,0.6576,0.6518,0.6524,0.6528,0.6531,0,0,0,0,0,0,0,0.5717,0.5743,0.599,0.5972,0.5984,0.6012,0.6037,0.6132,0.6255,0.6153,0.6161,0.6186,0.6373,0.6419,0.6435,0.6579,0.6518,0.6527,0.6533,0.6536,0.6784,0.6785,0,0,0,0,0,0,0.5691,0.5732,0.5983,0.5997,0.5856,0.6018,0.6046,0.6101,0.6254,0.6277,0.6186,0.619,0.6402,0.6423,0.6444,0.6534,0.6528,0.6537,0.6543,0.6783,0.6784,0.6785,0,0,0,0,0,0,0.5683,0.5712,0.5974,0.5867,0.5902,0.6025,0.6085,0.6106,0.6152,0.6279,0.6302,0.621,0.6403,0.643,0.6526,0.6543,0.6542,0.6551,0.6783,0.6784,0.6785,0.6712,0,0,0,0,0,0,0.5673,0.5708,0.5734,0.5867,0.5908,0.6051,0.6086,0.611,0.6168,0.6175,0.6308,0.633,0.6405,0.6511,0.6536,0.6557,0.6558,0.6782,0.6783,0.6784,0.6714,0.6711,0.6708,0,0,0,0,0,0.566,0.5705,0.5735,0.5764,0.5942,0.6051,0.6075,0.6159,0.6169,0.6197,0.6279,0.6326,0.6537,0.652,0.6549,0.6573,0.6781,0.6783,0.6784,0.6715,0.6711,0.6708,0,0,0,0,0,0,0.5573,0.5724,0.5759,0.5848,0.5936,0.6069,0.6106,0.6152,0.6241,0.6244,0.6346,0.6375,0.6462,0.6527,0.6506,0.6646,0.6663,0.6671,0.6601,0.6598,0.6596,0.6579,0.6566,0,0,0,0,0,0.5564,0.5639,0.5767,0.5834,0.5876,0.5983,0.6034,0.6091,0.6187,0.6225,0.6314,0.6407,0.6494,0.655,0.6637,0.6723,0.6755,0.6754,0.6751,0.6748,0.6754,0.6806,0.6807,0.679,0.679,0.679,0,0,0.5547,0.5639,0.568,0.5819,0.5894,0.597,0.6014,0.6093,0.6152,0.6238,0.6334,0.6402,0.6513,0.6604,0.6649,0.6661,0.6765,0.675,0.6747,0.6755,0.6808,0.6809,0.681,0.6791,0.6791,0.6791,0,0,0.5555,0.5631,0.5695,0.5768,0.5881,0.5952,0.5967,0.6093,0.6141,0.6239,0.6305,0.6377,0.6525,0.6601,0.6659,0.6695,0.6743,0.6721,0.6707,0.6756,0.6758,0.676,0.6774,0.6778,0.6726,0.6726,0.6726,0,0.5519,0.5636,0.5722,0.5798,0.5858,0.5937,0.6004,0.6072,0.6207,0.6248,0.6259,0.6446,0.6526,0.6637,0.6646,0.669,0.6712,0.6707,0.675,0.6753,0.6756,0.6771,0.6776,0.6723,0.6723,0.6723,0.6724,0,0.5588,0.5668,0.5706,0.5833,0.5898,0.5968,0.6067,0.6122,0.6173,0.6243,0.6342,0.644,0.6549,0.658,0.6631,0.6698,0.6703,0.673,0.675,0.6753,0.6769,0.6775,0.6718,0.6719,0.672,0.6721,0,0,0.5548,0.5721,0.5734,0.5793,0.5923,0.5987,0.6062,0.6167,0.6213,0.6304,0.637,0.6494,0.652,0.6586,0.6647,0.6689,0.6713,0.6713,0.6717,0.6711,0.6796,0.6775,0.678,0.6745,0.6746,0.6747,0.6787,0,0.5575,0.5711,0.579,0.5894,0.597,0.6047,0.6112,0.62,0.6267,0.6343,0.6418,0.6504,0.6532,0.6573,0.6618,0.67,0.6732,0.6699,0.681,0.6813,0.6781,0.6788,0.6766,0.6799,0.6794,0.6795,0.6795,0,0.5624,0.5712,0.5822,0.5944,0.5979,0.6036,0.6139,0.621,0.6311,0.6358,0.643,0.6491,0.6575,0.6586,0.6704,0.6679,0.6729,0.6776,0.678,0.6795,0.6805,0.6804,0.6811,0.6816,0.6806,0.6805,0.6804,0,0.5585,0.5731,0.5817,0.5865,0.6008,0.6047,0.6109,0.621,0.6268,0.6359,0.6398,0.6497,0.6552,0.6629,0.6715,0.6715,0.6825,0.6843,0.6867,0.6865,0.6888,0.6886,0.6904,0.6917,0.6917,0.6917,0.6917,0,0.5608,0.5673,0.5801,0.5854,0.593,0.6022,0.6095,0.6163,0.6252,0.6321,0.6393,0.6457,0.6566,0.6643,0.6712,0.68,0.6824,0.6865,0.6882,0.6859,0.6854,0.6895,0.6895,0.6919,0.6918,0.6918,0.6918,0,0.5578,0.5666,0.5765,0.5892,0.5925,0.5976,0.6086,0.6141,0.6212,0.6298,0.6324,0.6436,0.653,0.6624,0.6751,0.6797,0.6885,0.6908,0.685,0.686,0.688,0.6877,0.6926,0.6938,0.6941,0.6941,0.6941,0,0.5586,0.5638,0.5771,0.5821,0.5881,0.5961,0.6021,0.6113,0.6173,0.6292,0.6333,0.6433,0.6518,0.6666,0.676,0.6858,0.6885,0.6895,0.69,0.6876,0.6887,0.6883,0.689,0.6893,0.6892,0.6892,0.6892,0,0.5593,0.5634,0.5716,0.5814,0.5883,0.5964,0.6049,0.6087,0.6196,0.6259,0.6356,0.6422,0.6552,0.6651,0.676,0.6826,0.6878,0.6889,0.69,0.6878,0.6843,0.6864,0.6845,0.6888,0.6888,0.6889,0.6889,0.6889,0.5585,0.5634,0.5735,0.5825,0.5898,0.5975,0.6033,0.6111,0.6193,0.6305,0.6355,0.6453,0.6554,0.6706,0.6771,0.685,0.6864,0.6879,0.6884,0.6886,0.6882,0.6829,0.687,0.6871,0.6871,0.6871,0.6871,0,0.5596,0.5665,0.5746,0.5861,0.5932,0.5972,0.6068,0.6125,0.621,0.6299,0.6381,0.6493,0.6589,0.669,0.6793,0.6837,0.6863,0.6861,0.686,0.6874,0.6863,0.6844,0.6838,0.6838,0.6838,0.6838,0.6838,0.6838,0.5611,0.5697,0.575,0.5875,0.5944,0.6039,0.6091,0.6163,0.6235,0.6356,0.6436,0.6501,0.6596,0.6706,0.6796,0.6824,0.6859,0.685,0.6884,0.6873,0.6875,0.6877,0.6859,0.6856,0.6856,0.6889,0.6889,0.6889]}]]